• Em Portugal
  • Lista de países
  • Para 7 dias
  • Temperatura da água
  • Mapas de satélite
  • Mapa do tempo
  • Widgets de tempo
  • user-avatar
    Iniciar Sessão

    Previsão horária em Kahramanmaras

    Hoje, 11 Dezembro, Segunda-feira

    Tempo Temperatura Precipitação Vento Pressão Humidade
    00:00 +2°C° 0 mm 1 m/s 664 mmHg 60%
    01:00 +2°C° 0 mm 1 m/s 664 mmHg 60%
    02:00 +2°C° 0 mm 1 m/s 664 mmHg 61%
    03:00 +2°C° 0 mm 1 m/s 664 mmHg 61%
    04:00 +2°C° 0 mm 1 m/s 664 mmHg 61%
    05:00 +2°C° 0 mm 1 m/s 664 mmHg 61%
    06:00 +3°C° 0 mm 1 m/s 664 mmHg 59%
    07:00 +3°C° 0 mm 1 m/s 665 mmHg 57%
    08:00 +4°C° 0 mm 1 m/s 665 mmHg 54%
    09:00 +6°C° 0 mm 1 m/s 666 mmHg 49%
    10:00 +8°C° 0 mm 1 m/s 666 mmHg 43%
    11:00 +9°C° 0 mm 0 m/s 667 mmHg 38%
    12:00 +9°C° 0 mm 0 m/s 667 mmHg 37%
    13:00 +11°C° 0 mm 1 m/s 667 mmHg 37%
    14:00 +11°C° 0 mm 1 m/s 666 mmHg 36%
    15:00 +8°C° 0 mm 0 m/s 666 mmHg 41%
    16:00 +7°C° 0 mm 0 m/s 666 mmHg 47%
    17:00 +5°C° 0 mm 0 m/s 665 mmHg 52%
    18:00 +6°C° 0 mm 1 m/s 665 mmHg 53%
    19:00 +5°C° 0 mm 1 m/s 665 mmHg 53%
    20:00 +5°C° 0 mm 1 m/s 665 mmHg 53%
    21:00 +5°C° 0 mm 1 m/s 665 mmHg 53%
    22:00 +5°C° 0 mm 1 m/s 665 mmHg 53%
    23:00 +5°C° 0 mm 1 m/s 665 mmHg 53%

    Amanhã, 12 Dezembro, Terça-feira

    Tempo Temperatura Precipitação Vento Pressão Humidade
    00:00 +5°C° 0 mm 1 m/s 665 mmHg 52%
    01:00 +4°C° 0 mm 2 m/s 665 mmHg 52%
    02:00 +4°C° 0 mm 2 m/s 665 mmHg 51%
    03:00 +4°C° 0 mm 2 m/s 665 mmHg 51%
    04:00 +3°C° 0 mm 2 m/s 665 mmHg 51%
    05:00 +4°C° 0 mm 1 m/s 664 mmHg 52%
    06:00 +5°C° 0 mm 1 m/s 665 mmHg 49%
    07:00 +6°C° 0 mm 1 m/s 665 mmHg 47%
    08:00 +7°C° 0 mm 1 m/s 665 mmHg 45%
    09:00 +9°C° 0 mm 1 m/s 666 mmHg 40%
    10:00 +11°C° 0 mm 1 m/s 666 mmHg 34%
    11:00 +13°C° 0 mm 1 m/s 666 mmHg 29%
    12:00 +13°C° 0 mm 1 m/s 666 mmHg 29%
    13:00 +13°C° 0 mm 1 m/s 666 mmHg 28%
    14:00 +14°C° 0 mm 1 m/s 665 mmHg 28%
    15:00 +12°C° 0 mm 1 m/s 665 mmHg 31%
    16:00 +10°C° 0 mm 1 m/s 664 mmHg 34%
    17:00 +9°C° 0 mm 1 m/s 663 mmHg 38%
    18:00 +8°C° 0 mm 1 m/s 663 mmHg 38%
    19:00 +8°C° 0 mm 1 m/s 663 mmHg 38%
    20:00 +7°C° 0 mm 1 m/s 663 mmHg 38%
    21:00 +7°C° 0 mm 1 m/s 663 mmHg 38%
    22:00 +7°C° 0 mm 1 m/s 663 mmHg 37%
    23:00 +7°C° 0 mm 1 m/s 663 mmHg 37%

    Depois de amanhã, 13 Dezembro, Quarta-feira

    Tempo Temperatura Precipitação Vento Pressão Humidade
    00:00 +6°C° 0 mm 1 m/s 662 mmHg 36%
    01:00 +6°C° 0 mm 1 m/s 662 mmHg 36%
    02:00 +6°C° 0 mm 1 m/s 662 mmHg 35%
    03:00 +5°C° 0 mm 2 m/s 662 mmHg 34%
    04:00 +5°C° 0 mm 2 m/s 662 mmHg 33%
    05:00 +5°C° 0 mm 2 m/s 661 mmHg 33%
    06:00 +6°C° 0 mm 2 m/s 662 mmHg 33%
    07:00 +6°C° 0 mm 2 m/s 662 mmHg 32%
    08:00 +7°C° 0 mm 2 m/s 663 mmHg 32%
    09:00 +10°C° 0 mm 1 m/s 663 mmHg 28%
    10:00 +12°C° 0 mm 1 m/s 663 mmHg 25%
    11:00 +12°C° 0 mm 0 m/s 663 mmHg 21%
    12:00 +14°C° 0 mm 1 m/s 663 mmHg 21%
    13:00 +14°C° 0 mm 1 m/s 663 mmHg 21%
    14:00 +14°C° 0 mm 1 m/s 663 mmHg 21%
    15:00 +12°C° 0 mm 1 m/s 662 mmHg 24%
    16:00 +10°C° 0 mm 1 m/s 662 mmHg 28%
    17:00 +9°C° 0 mm 1 m/s 661 mmHg 32%
    18:00 +8°C° 0 mm 1 m/s 661 mmHg 32%
    19:00 +8°C° 0 mm 1 m/s 661 mmHg 33%
    20:00 +7°C° 0 mm 1 m/s 661 mmHg 33%
    21:00 +7°C° 0 mm 1 m/s 661 mmHg 33%
    22:00 +7°C° 0 mm 1 m/s 661 mmHg 33%
    23:00 +6°C° 0 mm 1 m/s 661 mmHg 33%

    14 Dezembro, Quinta-feira

    Tempo Temperatura Precipitação Vento Pressão Humidade
    00:00 +6°C° 0 mm 1 m/s 660 mmHg 34%
    01:00 +6°C° 0 mm 1 m/s 660 mmHg 34%
    02:00 +6°C° 0 mm 1 m/s 660 mmHg 34%
    03:00 +5°C° 0 mm 1 m/s 660 mmHg 34%
    04:00 +5°C° 0 mm 1 m/s 660 mmHg 35%
    05:00 +5°C° 0 mm 1 m/s 660 mmHg 35%
    06:00 +6°C° 0 mm 1 m/s 660 mmHg 36%
    07:00 +6°C° 0 mm 1 m/s 661 mmHg 36%
    08:00 +7°C° 0 mm 1 m/s 661 mmHg 36%
    09:00 +9°C° 0 mm 1 m/s 662 mmHg 33%
    10:00 +11°C° 0 mm 1 m/s 662 mmHg 29%
    11:00 +12°C° 0 mm 1 m/s 663 mmHg 25%
    12:00 +13°C° 0 mm 1 m/s 662 mmHg 26%
    13:00 +13°C° 0 mm 1 m/s 662 mmHg 27%
    14:00 +13°C° 0 mm 1 m/s 662 mmHg 28%
    15:00 +11°C° 0 mm 1 m/s 661 mmHg 33%
    16:00 +9°C° 0 mm 1 m/s 661 mmHg 38%
    17:00 +8°C° 0 mm 1 m/s 660 mmHg 43%
    18:00 +7°C° 0 mm 1 m/s 660 mmHg 44%
    19:00 +7°C° 0 mm 1 m/s 660 mmHg 46%
    20:00 +7°C° 0 mm 1 m/s 660 mmHg 47%
    21:00 +7°C° 0 mm 1 m/s 660 mmHg 49%
    22:00 +7°C° 0 mm 1 m/s 660 mmHg 52%
    23:00 +6°C° 0 mm 1 m/s 660 mmHg 54%

    15 Dezembro, Sexta-feira

    Tempo Temperatura Precipitação Vento Pressão Humidade
    00:00 +6°C° 0 mm 1 m/s 660 mmHg 58%
    01:00 +6°C° 0 mm 1 m/s 660 mmHg 62%
    02:00 +5°C° 0 mm 1 m/s 660 mmHg 66%
    03:00 +5°C° 0 mm 1 m/s 660 mmHg 69%
    04:00 +5°C° 0 mm 1 m/s 660 mmHg 72%
    05:00 +4°C° 0 mm 1 m/s 660 mmHg 75%
    06:00 +5°C° 0 mm 1 m/s 660 mmHg 72%
    07:00 +6°C° 0 mm 1 m/s 661 mmHg 70%
    08:00 +7°C° 0 mm 1 m/s 661 mmHg 67%
    09:00 +8°C° 0 mm 1 m/s 662 mmHg 61%
    10:00 +10°C° 0 mm 1 m/s 662 mmHg 55%
    11:00 +10°C° 0 mm 0 m/s 662 mmHg 49%
    12:00 +12°C° 0 mm 1 m/s 662 mmHg 48%
    13:00 +12°C° 0 mm 1 m/s 662 mmHg 47%
    14:00 +12°C° 0 mm 1 m/s 662 mmHg 46%
    15:00 +11°C° 0 mm 1 m/s 662 mmHg 54%
    16:00 +8°C° 0 mm 0 m/s 662 mmHg 61%
    17:00 +6°C° 0 mm 0 m/s 661 mmHg 69%
    18:00 +6°C° 0 mm 0 m/s 661 mmHg 70%
    19:00 +6°C° 0 mm 0 m/s 662 mmHg 72%
    20:00 +5°C° 0 mm 0 m/s 662 mmHg 73%
    21:00 +5°C° 0 mm 0 m/s 662 mmHg 74%
    22:00 +5°C° 0 mm 0 m/s 662 mmHg 74%
    23:00 +4°C° 0 mm 0 m/s 662 mmHg 74%

    16 Dezembro, Sábado

    Tempo Temperatura Precipitação Vento Pressão Humidade
    00:00 +4°C° 0 mm 0 m/s 661 mmHg 74%
    01:00 +4°C° 0 mm 0 m/s 661 mmHg 74%
    02:00 +4°C° 0 mm 0 m/s 661 mmHg 74%
    03:00 +4°C° 0 mm 0 m/s 661 mmHg 74%
    04:00 +3°C° 0 mm 0 m/s 661 mmHg 74%
    05:00 +3°C° 0 mm 0 m/s 661 mmHg 74%
    06:00 +4°C° 0 mm 0 m/s 662 mmHg 71%
    07:00 +5°C° 0 mm 0 m/s 662 mmHg 68%
    08:00 +5°C° 0 mm 0 m/s 663 mmHg 66%
    09:00 +7°C° 0 mm 0 m/s 663 mmHg 60%
    10:00 +9°C° 0 mm 1 m/s 663 mmHg 54%
    11:00 +11°C° 0 mm 1 m/s 664 mmHg 49%
    12:00 +11°C° 0 mm 1 m/s 663 mmHg 47%
    13:00 +12°C° 0 mm 1 m/s 663 mmHg 46%
    14:00 +12°C° 0 mm 1 m/s 663 mmHg 44%
    15:00 +10°C° 0 mm 1 m/s 663 mmHg 51%
    16:00 +9°C° 0 mm 1 m/s 662 mmHg 57%
    17:00 +6°C° 0 mm 0 m/s 662 mmHg 63%
    18:00 +6°C° 0 mm 0 m/s 662 mmHg 65%
    19:00 +5°C° 0 mm 0 m/s 662 mmHg 66%
    20:00 +5°C° 0 mm 0 m/s 662 mmHg 68%
    21:00 +5°C° 0 mm 0 m/s 662 mmHg 69%
    22:00 +4°C° 0 mm 0 m/s 662 mmHg 70%
    23:00 +4°C° 0 mm 0 m/s 662 mmHg 72%
    Mostrar mais